GW4207 Weather Reports


time (UTC)temp
F
wind
direction
speed
knots
gust
knots
rain 1hr
in
rain 24hr
in
rain mn
in
humidity
%
barometer
mb
20260508214402 62 55 0.0 3.5 0.00 0.00 0.00 65 1007.5
20260508213906 62 128 1.7 4.3 0.00 0.00 0.00 66 1007.5
20260508213405 62 341 0.0 4.3 0.00 0.00 0.00 67 1007.5
20260508213135 63 116 0.0 3.5 0.00 0.00 0.00 68 1007.5
20260508212415 63 50 0.0 3.5 0.00 0.00 0.00 67 1007.7
20260508211905 63 321 0.0 3.5 0.00 0.00 0.00 67 1007.5
20260508211403 64 72 0.9 4.3 0.00 0.00 0.00 66 1007.7
20260508211123 63 290 0.9 4.3 0.00 0.00 0.00 65 1007.7
20260508211045 63 58 0.0 3.5 0.00 0.00 0.00 63 1007.9
20260508205904 63 49 1.7 3.5 0.00 0.00 0.00 63 1007.9
20260508205409 64 153 1.7 4.3 0.00 0.00 0.00 62 1007.9
20260508204858 64 43 0.0 5.2 0.00 0.00 0.00 61 1007.7
20260508204359 64 135 0.0 5.2 0.00 0.00 0.00 58 1007.8
20260508204347 65 124 0.0 5.2 0.00 0.00 0.00 58 1008.1
20260508203634 65 163 1.7 5.2 0.00 0.00 0.00 59 1007.9
20260508202901 64 138 0.9 3.5 0.00 0.00 0.00 59 1007.8
20260508202413 64 101 0.0 2.6 0.00 0.00 0.00 59 1007.8
20260508201900 65 117 0.9 3.5 0.00 0.00 0.00 59 1008.0
20260508201401 65 38 0.0 3.5 0.00 0.00 0.00 58 1008.1
20260508200900 65 281 0.0 2.6 0.00 0.00 0.00 60 1008.0
20260508200357 65 102 0.0 2.6 0.00 0.00 0.00 60 1008.3
20260508195857 66 50 0.0 3.5 0.00 0.00 0.00 60 1008.4
20260508195410 66 293 0.0 3.5 0.00 0.00 0.00 61 1008.4
20260508194900 66 7 0.0 3.5 0.00 0.00 0.00 61 1008.2
20260508194357 65 0 0.0 4.3 0.00 0.00 0.00 59 1008.7
20260508193857 65 316 1.7 4.3 0.00 0.00 0.00 57 1008.6
20260508193358 66 150 2.6 3.5 0.00 0.00 0.00 59 1009.1
20260508192858 65 56 0.0 3.5 0.00 0.00 0.00 61 1008.8
20260508192620 64 349 0.9 3.5 0.00 0.00 0.00 61 1008.8
20260508191907 63 148 1.7 4.3 0.00 0.00 0.00 62 1008.7
20260508191356 62 47 0.0 4.3 0.00 0.00 0.00 60 1009.1
20260508190854 63 106 0.0 3.5 0.00 0.00 0.00 61 1009.1
20260508190353 64 335 1.7 3.5 0.00 0.00 0.00 57 1009.3
20260508185853 64 60 0.0 4.3 0.00 0.00 0.00 59 1009.2
20260508185353 64 139 0.9 4.3 0.00 0.00 0.00 59 1009.5
20260508184906 64 309 0.0 4.3 0.00 0.00 0.00 59 1009.3
20260508184355 64 350 0.0 3.5 0.00 0.00 0.00 59 1009.5
20260508183853 64 17 0.9 3.5 0.00 0.00 0.00 59 1009.4
20260508183615 65 87 0.0 3.5 0.00 0.00 0.00 59 1009.8
20260508182853 65 13 0.0 2.6 0.00 0.00 0.00 61 1009.4
20260508182352 64 88 1.7 5.2 0.00 0.00 0.00 63 1009.5
20260508182126 64 209 0.0 5.2 0.00 0.00 0.00 62 1009.8
20260508181835 64 108 1.7 3.5 0.00 0.00 0.00 62 1009.5
20260508180847 64 134 1.7 3.5 0.00 0.00 0.00 63 1009.8
20260508180615 63 349 0.9 4.3 0.00 0.00 0.00 64 1009.9
20260508180130 62 209 0.0 4.3 0.00 0.00 0.00 65 1009.8
20260508175347 61 139 1.7 4.3 0.00 0.00 0.00 65 1009.9
20260508175339 62 127 0.0 3.5 0.00 0.00 0.00 64 1009.9
20260508174354 62 231 0.0 3.5 0.00 0.00 0.00 63 1010.1
20260508173851 63 125 2.6 3.5 0.00 0.00 0.00 62 1010.2
20260508173351 62 113 1.7 2.6 0.00 0.00 0.00 63 1010.1
20260508172855 62 136 0.0 4.3 0.00 0.00 0.00 63 1010.0
20260508172357 61 304 0.0 4.3 0.00 0.00 0.00 63 1010.2
20260508171852 62 25 0.0 2.6 0.00 0.00 0.00 63 1010.4
20260508171349 62 136 0.9 3.5 0.00 0.00 0.00 63 1010.6
20260508171123 62 64 0.0 3.5 0.00 0.00 0.00 62 1010.4
20260508170349 62 13 0.9 3.5 0.00 0.00 0.00 65 1010.6
20260508165851 62 79 0.9 3.5 0.00 0.00 0.00 63 1010.5
20260508165349 62 350 0.9 2.6 0.00 0.00 0.00 64 1010.7
20260508164853 61 37 0.9 2.6 0.00 0.00 0.00 64 1010.9
20260508164610 61 86 0.0 1.7 0.00 0.00 0.00 63 1010.9
20260508163846 61 49 1.7 1.7 0.00 0.00 0.00 64 1010.9
20260508163134 61 57 1.7 2.6 0.00 0.00 0.00 65 1010.9
20260508162637 61 31 0.9 2.6 0.00 0.00 0.00 65 1011.1
20260508162132 61 347 1.7 3.5 0.00 0.00 0.00 65 1010.9
20260508161636 61 51 1.7 3.5 0.00 0.00 0.00 66 1011.3
20260508161133 61 129 0.9 2.6 0.00 0.00 0.00 67 1011.4
20260508160626 60 130 0.0 1.7 0.00 0.00 0.00 68 1011.5
20260508155925 59 15 0.0 4.3 0.00 0.00 0.00 67 1011.3
20260508155422 59 66 0.0 1.7 0.00 0.00 0.00 66 1011.5
20260508155142 59 8 0.9 1.7 0.00 0.00 0.00 66 1011.6
20260508154436 59 336 0.9 2.6 0.00 0.00 0.00 67 1011.7
20260508153924 59 34 0.0 2.6 0.00 0.00 0.00 68 1011.3
20260508153425 58 59 0.9 2.6 0.00 0.00 0.00 69 1011.4
20260508153145 58 309 0.0 2.6 0.00 0.00 0.00 71 1011.4
20260508152424 58 40 0.9 2.6 0.00 0.00 0.00 71 1011.5
20260508152150 57 21 1.7 2.6 0.00 0.00 0.00 70 1011.7
20260508151700 57 55 0.0 2.6 0.00 0.00 0.00 69 1011.6
20260508150927 57 135 0.0 2.6 0.00 0.00 0.00 71 1011.5
20260508150422 56 63 0.0 3.5 0.00 0.00 0.00 71 1011.6
20260508145921 56 96 0.9 3.5 0.00 0.00 0.00 71 1011.8
20260508145422 55 42 0.0 3.5 0.00 0.00 0.00 72 1011.6
20260508144920 55 88 2.6 3.5 0.00 0.00 0.00 72 1011.8
20260508144421 55 37 0.0 2.6 0.00 0.00 0.00 73 1011.6
20260508144143 54 21 1.7 3.5 0.00 0.00 0.00 74 1011.9
20260508143421 54 45 0.9 3.5 0.00 0.00 0.00 74 1011.6
20260508142918 54 105 2.6 3.5 0.00 0.00 0.00 74 1011.7
20260508142420 53 29 1.7 2.6 0.00 0.00 0.00 74 1011.7
20260508141918 53 117 0.9 3.5 0.00 0.00 0.00 74 1011.9
20260508141419 53 105 1.7 3.5 0.00 0.00 0.00 74 1011.6
20260508140926 53 50 0.9 2.6 0.00 0.00 0.00 75 1012.1
20260508140423 52 65 0.9 2.6 0.00 0.00 0.00 76 1011.9
20260508135917 52 101 0.9 2.6 0.00 0.00 0.00 76 1011.9
20260508135418 51 89 0.0 3.5 0.00 0.00 0.00 76 1012.0
20260508134916 51 16 0.0 3.5 0.00 0.00 0.00 76 1012.0
20260508134417 51 47 1.7 3.5 0.00 0.00 0.00 76 1011.8
20260508133914 51 128 0.0 2.6 0.00 0.00 0.00 77 1012.1
20260508133651 50 69 1.7 2.6 0.00 0.00 0.00 77 1012.1
20260508133139 50 70 0.9 2.6 0.00 0.00 0.00 77 1012.0
20260508132414 50 77 0.9 2.6 0.00 0.00 0.00 77 1011.7
20260508132134 49 135 0.0 2.6 0.00 0.00 0.00 77 1011.9
20260508131414 49 83 0.9 2.6 0.00 0.00 0.00 77 1011.9
20260508130911 48 81 0.9 1.7 0.00 0.00 0.00 77 1011.9
20260508130413 48 122 0.0 2.6 0.00 0.00 0.00 77 1012.0
20260508125915 47 104 0.9 2.6 0.00 0.00 0.00 78 1011.9
20260508125410 47 137 1.7 1.7 0.00 0.00 0.00 78 1012.0
20260508124909 47 87 0.0 1.7 0.00 0.00 0.00 78 1012.1
20260508124411 47 89 0.0 2.6 0.00 0.00 0.00 78 1012.1
20260508123907 46 122 0.0 2.6 0.00 0.00 0.00 78 1012.0
20260508123404 46 127 1.7 2.6 0.00 0.00 0.00 78 1012.0
20260508122902 45 59 0.0 1.7 0.00 0.00 0.00 78 1011.9
20260508122413 45 96 0.0 1.7 0.00 0.00 0.00 78 1012.0
20260508122120 44 76 0.0 1.7 0.00 0.00 0.00 78 1011.8
20260508121402 44 58 0.0 1.7 0.00 0.00 0.00 77 1011.8
20260508121119 44 66 0.0 1.7 0.00 0.00 0.00 77 1011.9
20260508120848 43 94 0.9 1.7 0.00 0.00 0.00 77 1011.7
20260508115900 43 81 0.0 1.7 0.00 0.00 0.00 77 1011.8
20260508115400 43 81 0.9 1.7 0.00 0.00 0.00 77 1011.5
20260508114905 43 76 0.0 1.7 0.00 0.00 0.00 77 1011.6
20260508114406 42 79 0.9 1.7 0.00 0.00 0.00 77 1011.6
20260508113858 42 94 0.9 1.7 0.00 0.00 0.00 77 1011.8
20260508113358 42 89 0.9 1.7 0.00 0.00 0.00 77 1011.8
20260508113120 42 89 0.9 1.7 0.00 0.00 0.00 76 1011.6
20260508112624 42 89 0.9 1.7 0.00 0.00 0.00 76 1011.4
20260508111907 42 89 0.9 1.7 0.00 0.00 0.00 76 1011.5
20260508111405 41 89 0.0 1.7 0.00 0.00 0.00 76 1011.6
20260508110856 41 92 0.9 1.7 0.00 0.00 0.00 76 1011.6
20260508110846 41 102 0.0 1.7 0.00 0.00 0.00 76 1011.4
20260508105856 41 103 0.9 1.7 0.00 0.00 0.00 76 1011.2
20260508105356 41 95 0.9 1.7 0.00 0.00 0.00 76 1011.4
20260508104854 41 97 1.7 1.7 0.00 0.00 0.00 76 1011.5
20260508104408 41 98 0.0 1.7 0.00 0.00 0.00 76 1011.2
20260508103855 41 98 0.9 1.7 0.00 0.00 0.00 75 1011.0
20260508103355 41 97 0.9 1.7 0.00 0.00 0.00 75 1011.1
20260508102849 41 92 0.9 1.7 0.00 0.00 0.00 75 1011.1
20260508102355 41 101 0.9 1.7 0.00 0.00 0.00 75 1011.3
20260508102345 42 93 0.9 1.7 0.00 0.00 0.00 75 1011.3
20260508101354 42 74 0.9 1.7 0.00 0.00 0.00 75 1011.1
20260508101343 42 97 0.0 1.7 0.00 0.00 0.00 75 1011.2
20260508100354 42 100 1.7 1.7 0.00 0.00 0.00 75 1011.2
20260508100111 42 89 1.7 1.7 0.00 0.00 0.00 75 1011.2
20260508095352 42 98 1.7 1.7 0.00 0.00 0.00 75 1011.2
20260508094851 42 77 0.9 1.7 0.00 0.00 0.00 75 1011.7
20260508094353 42 98 0.9 1.7 0.00 0.00 0.00 75 1011.6
20260508093851 41 96 0.9 1.7 0.00 0.00 0.00 75 1011.6
20260508093400 41 88 0.9 1.7 0.00 0.00 0.00 75 1011.5
20260508092851 41 70 0.9 1.7 0.00 0.00 0.00 74 1011.3
20260508092352 41 97 0.0 1.7 0.00 0.00 0.00 74 1011.2
20260508092112 41 92 0.9 1.7 0.00 0.00 0.00 74 1011.3
20260508091350 41 95 0.9 1.7 0.00 0.00 0.00 74 1011.2
20260508090849 41 92 0.9 1.7 0.00 0.00 0.00 74 1011.3
20260508090355 41 89 0.9 1.7 0.00 0.00 0.00 74 1011.4
20260508085848 41 93 0.9 1.7 0.00 0.00 0.00 74 1011.4
20260508085350 41 88 0.9 1.7 0.00 0.00 0.00 73 1011.3
20260508084849 41 99 0.9 1.7 0.00 0.00 0.00 73 1011.4
20260508084350 42 95 0.9 1.7 0.00 0.00 0.00 73 1011.4
20260508083848 42 93 0.9 1.7 0.00 0.00 0.00 73 1011.2
20260508083349 42 92 0.9 1.7 0.00 0.00 0.00 73 1011.4
20260508082854 42 93 0.9 1.7 0.00 0.00 0.00 73 1011.5
20260508082349 42 94 0.9 1.7 0.00 0.00 0.00 73 1011.2
20260508081846 42 94 0.9 1.7 0.00 0.00 0.00 73 1011.2
20260508081348 42 89 0.0 1.7 0.00 0.00 0.00 73 1011.5
20260508080846 42 97 0.9 1.7 0.00 0.00 0.00 72 1011.2
20260508080347 42 89 0.9 1.7 0.00 0.00 0.00 72 1011.8
20260508075855 43 89 0.9 1.7 0.00 0.00 0.00 72 1011.4
20260508075347 43 92 0.9 1.7 0.00 0.00 0.00 72 1011.7
20260508074843 43 89 0.9 1.7 0.00 0.00 0.00 72 1011.2
20260508074611 43 71 0.0 1.7 0.00 0.00 0.00 72 1011.5
20260508073844 43 87 0.9 1.7 0.00 0.00 0.00 72 1011.3
20260508073345 43 62 0.0 1.7 0.00 0.00 0.00 72 1011.4
20260508072844 44 97 0.9 1.7 0.00 0.00 0.00 71 1011.6
20260508072349 44 91 0.0 1.7 0.00 0.00 0.00 71 1011.7
20260508071843 44 76 0.0 1.7 0.00 0.00 0.00 71 1011.5
20260508071344 44 82 0.9 1.7 0.00 0.00 0.00 71 1011.7
20260508070842 44 89 0.9 1.7 0.00 0.00 0.00 71 1011.5
20260508070343 44 81 0.9 1.7 0.00 0.00 0.00 71 1011.9
20260508070107 44 80 0.9 1.7 0.00 0.00 0.00 71 1011.6
20260508065350 44 96 0.0 1.7 0.00 0.00 0.00 71 1011.8
20260508064840 44 87 0.9 1.7 0.00 0.00 0.00 71 1011.8
20260508064342 44 83 0.9 1.7 0.00 0.00 0.00 71 1011.7
20260508063839 44 71 0.0 1.7 0.00 0.00 0.00 71 1011.7
20260508063340 43 89 0.0 1.7 0.00 0.00 0.00 70 1011.6
20260508063328 43 82 0.9 1.7 0.00 0.00 0.00 70 1011.6
20260508062340 43 93 0.9 1.7 0.00 0.00 0.00 70 1011.6
20260508061847 43 93 0.9 1.7 0.00 0.00 0.00 70 1011.5
20260508061340 43 91 0.9 1.7 0.00 0.00 0.00 69 1011.5
20260508061059 44 105 1.7 1.7 0.00 0.00 0.00 69 1011.7
20260508060339 44 87 0.9 1.7 0.00 0.00 0.00 69 1012.0
20260508055837 44 78 0.0 1.7 0.00 0.00 0.00 69 1011.5
20260508055339 44 83 0.9 1.7 0.00 0.00 0.00 69 1011.7
20260508054943 44 103 0.9 1.7 0.00 0.00 0.00 69 1011.6
20260508053337 44 89 0.0 1.7 0.00 0.00 0.00 68 1012.0
20260508052835 44 81 0.0 1.7 0.00 0.00 0.00 68 1012.1
20260508052337 44 89 0.0 1.7 0.00 0.00 0.00 68 1012.1
20260508052058 44 69 0.0 1.7 0.00 0.00 0.00 68 1012.0
20260508051343 44 83 0.9 1.7 0.00 0.00 0.00 67 1012.1
20260508050834 44 73 0.0 1.7 0.00 0.00 0.00 67 1012.1
20260508050336 44 84 0.0 1.7 0.00 0.00 0.00 67 1011.9
20260508050057 44 83 0.9 1.7 0.00 0.00 0.00 67 1011.9
20260508045335 44 97 0.9 1.7 0.00 0.00 0.00 66 1011.7
20260508044834 45 84 0.9 1.7 0.00 0.00 0.00 66 1012.1
20260508044604 45 87 0.9 1.7 0.00 0.00 0.00 66 1012.0
20260508043836 45 88 0.9 1.7 0.00 0.00 0.00 66 1011.8
20260508043334 45 89 0.9 1.7 0.00 0.00 0.00 65 1011.8
20260508042832 45 81 0.9 1.7 0.00 0.00 0.00 65 1011.8
20260508042608 46 87 0.9 1.7 0.00 0.00 0.00 65 1011.7
20260508041838 46 83 0.9 1.7 0.00 0.00 0.00 65 1011.8
20260508041345 46 99 0.9 1.7 0.00 0.00 0.00 65 1012.1
20260508040836 46 98 0.9 1.7 0.00 0.00 0.00 64 1011.7
20260508040610 46 102 0.0 1.7 0.00 0.00 0.00 64 1011.8
20260508035831 46 92 0.0 1.7 0.00 0.00 0.00 64 1011.8
20260508035555 46 101 0.9 1.7 0.00 0.00 0.00 63 1011.8
20260508034830 47 102 0.9 1.7 0.00 0.00 0.00 63 1012.2
20260508034331 47 89 0.0 1.7 0.00 0.00 0.00 63 1012.1
20260508033841 47 89 0.0 1.7 0.00 0.00 0.00 63 1012.0
20260508033600 47 84 1.7 1.7 0.00 0.00 0.00 63 1011.8
20260508032830 47 109 1.7 1.7 0.00 0.00 0.00 62 1012.0
20260508032331 48 89 0.0 1.7 0.00 0.00 0.00 62 1012.1
20260508031829 48 82 0.9 1.7 0.00 0.00 0.00 62 1012.0
20260508031325 48 89 0.9 1.7 0.00 0.00 0.00 62 1012.1
20260508030824 48 101 0.9 1.7 0.00 0.00 0.00 61 1012.1
20260508030331 48 81 0.9 1.7 0.00 0.00 0.00 61 1012.3
20260508025828 49 93 0.0 1.7 0.00 0.00 0.00 61 1012.3
20260508025329 49 92 0.9 1.7 0.00 0.00 0.00 60 1012.3
20260508025053 49 71 0.9 1.7 0.00 0.00 0.00 60 1012.3
20260508024824 49 124 0.0 2.6 0.00 0.00 0.00 60 1012.2
20260508023827 50 92 0.9 2.6 0.00 0.00 0.00 60 1012.2
20260508023337 50 89 0.9 1.7 0.00 0.00 0.00 60 1012.2
20260508022828 50 108 0.0 1.7 0.00 0.00 0.00 59 1012.4
20260508022806 50 80 0.0 1.7 0.00 0.00 0.00 59 1012.4
20260508021826 50 101 1.7 2.6 0.00 0.00 0.00 59 1012.1
20260508021327 50 104 0.9 2.6 0.00 0.00 0.00 59 1012.2
20260508020826 50 76 0.0 2.6 0.00 0.00 0.00 58 1012.1
20260508020327 50 82 0.0 2.6 0.00 0.00 0.00 58 1011.9
20260508015838 50 89 0.9 1.7 0.00 0.00 0.00 58 1012.2
20260508015331 50 95 0.9 1.7 0.00 0.00 0.00 58 1012.3
20260508014825 51 100 0.9 2.6 0.00 0.00 0.00 57 1012.1
20260508014325 51 115 0.0 3.5 0.00 0.00 0.00 57 1012.1
20260508013824 51 95 0.9 4.3 0.00 0.00 0.00 56 1012.2
20260508013325 51 76 0.0 4.3 0.00 0.00 0.00 56 1012.0
20260508013046 51 89 0.0 2.6 0.00 0.00 0.00 56 1011.8
20260508012552 51 66 0.0 3.5 0.00 0.00 0.00 55 1012.2
20260508011823 51 88 0.9 3.5 0.00 0.00 0.00 55 1011.7
20260508011545 51 113 1.7 1.7 0.00 0.00 0.00 55 1011.9
20260508010822 52 51 1.7 3.5 0.00 0.00 0.00 55 1011.8
20260508010323 52 51 0.9 4.3 0.00 0.00 0.00 53 1012.0
20260508005822 52 102 0.9 4.3 0.00 0.00 0.00 53 1011.5
20260508005330 53 77 0.0 2.6 0.00 0.00 0.00 52 1011.7
20260508005142 53 214 0.0 3.5 0.00 0.00 0.00 52 1011.5
20260508003821 54 21 0.9 3.5 0.00 0.00 0.00 51 1011.5
20260508003322 54 60 0.9 3.5 0.00 0.00 0.00 51 1011.4
20260508002820 54 55 0.0 1.7 0.00 0.00 0.00 50 1011.3
20260508002326 54 98 1.7 3.5 0.00 0.00 0.00 50 1011.3
20260508001818 54 105 1.7 3.5 0.00 0.00 0.00 50 1011.3
20260508001542 55 89 1.7 3.5 0.00 0.00 0.00 49 1011.3
20260508000819 55 128 2.6 3.5 0.00 0.00 0.00 49 1011.1
20260508000320 55 310 0.0 3.5 0.00 0.00 0.00 49 1011.2
20260507235818 55 114 0.9 3.5 0.00 0.00 0.00 49 1011.4
20260507235328 55 129 0.0 3.5 0.00 0.00 0.00 49 1011.6
20260507234818 55 139 0.0 3.5 0.00 0.00 0.00 49 1011.3
20260507234319 55 27 0.0 3.5 0.00 0.00 0.00 48 1011.0
20260507233817 55 166 0.9 2.6 0.00 0.00 0.00 48 1011.5
20260507233319 55 103 0.9 2.6 0.00 0.00 0.00 47 1011.2
20260507232817 56 102 0.0 2.6 0.00 0.00 0.00 47 1011.3
20260507232313 56 198 0.0 1.7 0.00 0.00 0.00 47 1011.5
20260507232043 56 66 0.0 2.6 0.00 0.00 0.00 47 1011.5
20260507231318 56 71 0.9 3.5 0.00 0.00 0.00 48 1011.4
20260507230816 57 94 0.9 3.5 0.00 0.00 0.00 47 1011.3
20260507230318 57 58 0.9 3.5 0.00 0.00 0.00 47 1011.4
20260507225816 57 340 0.0 3.5 0.00 0.00 0.00 48 1011.3
20260507225317 57 53 0.0 3.5 0.00 0.00 0.00 48 1011.5
20260507224825 57 21 0.9 3.5 0.00 0.00 0.00 47 1011.4
20260507224318 57 33 0.9 3.5 0.00 0.00 0.00 46 1011.5
20260507223815 57 76 0.0 3.5 0.00 0.00 0.00 46 1011.6
20260507223316 58 129 0.0 3.5 0.00 0.00 0.00 46 1011.8
20260507222814 58 314 1.7 2.6 0.00 0.00 0.00 48 1011.7
20260507222315 58 29 1.7 4.3 0.00 0.00 0.00 49 1011.5
20260507221813 58 161 0.0 4.3 0.00 0.00 0.00 47 1011.5
20260507221553 58 318 1.7 3.5 0.00 0.00 0.00 47 1011.5
20260507220816 58 82 0.9 2.6 0.00 0.00 0.00 48 1011.5
20260507220313 58 331 0.0 3.5 0.00 0.00 0.00 48 1011.4
20260507220034 58 41 0.0 3.5 0.00 0.00 0.00 48 1011.5
20260507215313 58 341 0.0 3.5 0.00 0.00 0.00 48 1011.6